Location: Cosy Dell
(34.2789°N, 117.4537°W)
Time: 00:08:16
(UTC+00:00)

H-2A R/B - Visible Passes

Search period start: 24 October 2020 00:00
Search period end: 03 November 2020 00:00
Orbit: 577 x 655 km, 98.5° (Epoch: 23 October)

Date Brightness Start Highest point End Pass type
(mag) Time Alt. Az. Time Alt. Az. Time Alt. Az.
24 Oct 3.1 11:59:48 10° SSE 12:02:32 37° S 12:02:32 37° S visible
25 Oct 4.3 01:26:43 10° NNW 01:30:12 26° WNW 01:33:37 10° SW visible
25 Oct 3.0 12:16:03 10° S 12:18:46 34° SSW 12:18:46 34° SSW visible
26 Oct 4.8 01:43:24 10° NNW 01:46:10 18° WNW 01:48:55 10° WSW visible
26 Oct 5.2 10:57:53 10° ESE 10:57:54 10° ESE 10:57:54 10° ESE visible
26 Oct 3.3 12:32:31 10° SSW 12:34:59 26° SW 12:34:59 26° SW visible
27 Oct 5.1 02:00:42 10° NW 02:02:08 12° WNW 02:03:33 10° W visible
27 Oct 4.8 11:13:11 10° SE 11:14:08 15° ESE 11:14:08 15° ESE visible
27 Oct 3.6 12:49:15 10° SSW 12:51:13 19° SW 12:51:13 19° SW visible
28 Oct 4.3 11:28:48 10° SE 11:30:22 20° SE 11:30:22 20° SE visible
28 Oct 4.0 13:06:27 10° SW 13:07:27 13° WSW 13:07:27 13° WSW visible
29 Oct 3.9 11:44:37 10° SSE 11:46:36 26° SSE 11:46:36 26° SSE visible
30 Oct 3.5 12:00:40 10° SSE 12:02:51 29° S 12:02:51 29° S visible
31 Oct 4.2 01:27:27 10° NNW 01:30:56 27° WNW 01:34:23 10° SW visible
31 Oct 3.4 12:16:54 10° S 12:19:05 28° SSW 12:19:05 28° SSW visible
01 Nov 4.8 01:44:08 10° NNW 01:46:55 18° WNW 01:49:43 10° WSW visible
01 Nov 3.5 12:33:21 10° SSW 12:35:19 23° SSW 12:35:19 23° SSW visible
02 Nov 5.0 02:01:21 10° NW 02:02:53 12° WNW 02:04:24 10° W visible
02 Nov 5.0 11:14:05 10° SE 11:14:28 12° ESE 11:14:28 12° ESE visible
02 Nov 3.8 12:50:04 10° SSW 12:51:33 17° SW 12:51:33 17° SW visible
